Flag for U.S.A. Weather past 2 weeks in Springfield, Illinois, U.S.A.

Now
72 °F

Scattered clouds.


Feels Like: 77 °F
Forecast: 64 / 81 °F
Wind: 12 mph from Southeast

Location: Capital Airport

Current Time: May 24, 2015 at 8:32:37 AM

Latest Report: May 24, 2015 at 7:52 AM


Visibility: 10 mi

Pressure: 30.09 "Hg

Humidity: 55%

Dew point: 55 °F

Location of SpringfieldLocation

Historic Weather in Springfield — Graph

°F

Springfield temperature yesterday

Maximum temperature yesterday: 81 °F (at 2:52 PM)
Minimum temperature yesterday: 55 °F (at 4:52 AM)
Average temperature yesterday: 70 °F

Past Weeks' High & Low Weather Summary

 TemperatureHumidityPressure
High82 °F (May 10, 3:52 PM)97% (May 9, 6:52 AM)30.45 "Hg (May 9, 6:52 AM)
Low43 °F (May 20, 11:52 PM)22% (May 22, 2:52 PM)29.85 "Hg (May 17, 10:52 AM)
Average64 °F67%30.10 "Hg
* Reported May 9 6:52 AM — May 24 6:52 AM, Springfield, Weather by CustomWeather, © 2015

Note: Actual official high and low records may vary slightly from our data, if they occured in-between our weather recording intervals... More about our weather records

Advertising

Springfield weather history for previous 24 hours

 ConditionsComfort  
Time TempWeatherWind HumidityBarometerVisibility
6:52 AM
Sun, May 24
66 °FPassing clouds.9 mph61%30.11 "Hg10 mi
5:52 AM65 °FPassing clouds.9 mph63%30.11 "Hg10 mi
4:52 AM66 °FPassing clouds.8 mph61%30.11 "Hg10 mi
3:52 AM68 °FClear.6 mph55%30.12 "Hg10 mi
2:52 AM70 °FPassing clouds.10 mph49%30.13 "Hg10 mi
1:52 AM70 °FClear.13 mph49%30.14 "Hg10 mi
12:52 AM71 °FOvercast.9 mph47%30.14 "Hg10 mi
11:52 PM
Sat, May 23
72 °FPassing clouds.12 mph44%30.14 "Hg10 mi
10:52 PM72 °FPassing clouds.8 mph48%30.15 "Hg10 mi
9:52 PM72 °FPassing clouds.9 mph48%30.16 "Hg10 mi
8:52 PM72 °FPassing clouds.8 mph48%30.16 "Hg10 mi
7:52 PM73 °FSunny.7 mph46%30.16 "Hg10 mi
6:52 PM76 °FSunny.9 mph37%30.17 "Hg10 mi
5:52 PM78 °FSunny.12 mph35%30.19 "Hg10 mi
4:52 PM80 °FSunny.13 mph32%30.20 "Hg10 mi
3:52 PM81 °FSunny.17 mph32%30.22 "Hg10 mi
2:52 PM81 °FSunny.12 mph32%30.24 "Hg10 mi
1:52 PM80 °FSunny.13 mph32%30.27 "Hg10 mi
12:52 PM79 °FPassing clouds.16 mph36%30.28 "Hg10 mi
11:52 AM77 °FPassing clouds.8 mph40%30.30 "Hg10 mi
10:52 AM76 °FSunny.8 mph45%30.30 "Hg10 mi
9:52 AM74 °FSunny.7 mph50%30.32 "Hg10 mi
8:52 AM71 °FSunny.8 mph59%30.33 "Hg10 mi
Weather by CustomWeather, © 2015

See weather overviewHow to use our weather pages